GW7375 Weather Reports


time (UTC)temp
C
wind
direction
speed
KPH
gust
KPH
rain 1hr
cm
rain 24hr
cm
rain mn
cm
humidity
%
barometer
mb
20260506085542 1 0 0.0 0.0 0.00 0.00 0.00 81 1012.8
20260506085042 1 0 0.0 0.0 0.00 0.00 0.00 81 1012.7
20260506084555 1 0 0.0 0.0 0.00 0.00 0.00 80 1012.7
20260506084043 1 0 0.0 0.0 0.00 0.00 0.00 80 1012.7
20260506083542 1 0 0.0 1.6 0.00 0.00 0.00 80 1012.6
20260506083051 1 0 0.0 1.6 0.00 0.00 0.00 80 1012.6
20260506082542 1 0 0.0 1.6 0.00 0.00 0.00 80 1012.6
20260506082042 1 0 0.0 3.2 0.00 0.00 0.00 79 1012.7
20260506081558 1 0 0.0 3.2 0.00 0.00 0.00 79 1012.7
20260506081042 1 17 0.0 1.6 0.00 0.00 0.00 78 1012.7
20260506080542 1 0 0.0 1.6 0.00 0.00 0.00 78 1012.7
20260506073053 2 0 0.0 0.0 0.00 0.00 0.00 73 1012.6
20260506072542 2 0 0.0 0.0 0.00 0.00 0.00 73 1012.4
20260506072042 3 0 0.0 0.0 0.00 0.00 0.00 73 1012.4
20260506071554 3 0 0.0 0.0 0.00 0.00 0.00 72 1012.3
20260506071041 3 0 0.0 0.0 0.00 0.00 0.00 72 1012.2
20260506070542 3 0 0.0 1.6 0.00 0.00 0.00 71 1012.2
20260506062040 2 0 0.0 0.0 0.00 0.00 0.00 77 1012.1
20260506061555 2 0 0.0 0.0 0.00 0.00 0.00 76 1012.1
20260506061046 2 0 0.0 0.0 0.00 0.00 0.00 76 1012.1
20260506060543 2 0 0.0 0.0 0.00 0.00 0.00 75 1012.1
20260506051043 3 0 0.0 0.0 0.00 0.00 0.00 72 1011.7
20260506050541 3 0 0.0 0.0 0.00 0.00 0.00 72 1011.7
20260506045047 4 0 0.0 0.0 0.00 0.00 0.00 71 1011.6
20260506044613 4 0 0.0 0.0 0.00 0.00 0.00 70 1011.5
20260506044040 4 0 0.0 0.0 0.00 0.00 0.00 70 1011.6
20260506043542 5 0 0.0 0.0 0.00 0.00 0.00 69 1011.6
20260506043047 5 0 0.0 0.0 0.00 0.00 0.00 69 1011.6
20260506042543 5 0 0.0 0.0 0.00 0.00 0.00 68 1011.6
20260506042041 5 0 0.0 0.0 0.00 0.00 0.00 68 1011.6
20260506041549 5 0 0.0 0.0 0.00 0.00 0.00 67 1011.6
20260506041041 5 0 0.0 0.0 0.00 0.00 0.00 66 1011.6
20260506040542 5 0 0.0 0.0 0.00 0.00 0.00 66 1011.5
20260506040049 5 0 0.0 1.6 0.00 0.00 0.00 66 1011.5
20260506035541 6 0 0.0 1.6 0.00 0.00 0.00 65 1011.6
20260506035041 6 0 0.0 0.0 0.00 0.00 0.00 65 1011.5
20260506034549 6 0 0.0 0.0 0.00 0.00 0.00 63 1011.5
20260506034042 6 0 0.0 0.0 0.00 0.00 0.00 63 1011.5
20260506033542 6 0 0.0 0.0 0.00 0.00 0.00 63 1011.4
20260506033053 6 0 0.0 0.0 0.00 0.00 0.00 63 1011.4
20260506032541 6 0 0.0 0.0 0.00 0.00 0.00 62 1011.5
20260506032043 7 0 0.0 0.0 0.00 0.00 0.00 60 1011.5
20260506031552 7 0 0.0 0.0 0.00 0.00 0.00 59 1011.4
20260506031043 7 0 0.0 0.0 0.00 0.00 0.00 57 1011.5
20260506030541 7 0 0.0 0.0 0.00 0.00 0.00 56 1011.4
20260506030048 7 0 0.0 0.0 0.00 0.00 0.00 54 1011.4
20260506025542 7 0 0.0 0.0 0.00 0.00 0.00 54 1011.4
20260506025041 7 0 0.0 0.0 0.00 0.00 0.00 53 1011.4
20260506024555 8 0 0.0 0.0 0.00 0.00 0.00 52 1011.3
20260506024041 8 0 0.0 0.0 0.00 0.00 0.00 51 1011.3
20260506023543 8 0 0.0 0.0 0.00 0.00 0.00 51 1011.2
20260506023059 8 0 0.0 0.0 0.00 0.00 0.00 49 1011.1
20260506022541 8 0 0.0 0.0 0.00 0.00 0.00 48 1011.0
20260506022042 8 0 0.0 0.0 0.00 0.00 0.00 49 1011.0
20260506021600 8 0 0.0 3.2 0.00 0.00 0.00 47 1011.0
20260506021041 8 0 0.0 3.2 0.00 0.00 0.00 47 1010.9
20260506020540 8 0 0.0 3.2 0.00 0.00 0.00 46 1010.8
20260506020049 8 0 0.0 3.2 0.00 0.00 0.00 46 1010.8
20260506015542 8 249 0.0 4.8 0.00 0.00 0.00 45 1010.8
20260506015042 8 259 0.0 4.8 0.00 0.00 0.00 45 1010.7
20260506014547 8 0 0.0 3.2 0.00 0.00 0.00 45 1010.7
20260506014041 9 0 0.0 4.8 0.00 0.00 0.00 44 1010.6
20260506013541 9 0 0.0 8.0 0.00 0.00 0.00 44 1010.6
20260506013051 9 332 1.6 11.3 0.00 0.00 0.00 43 1010.5
20260506012541 9 348 3.2 11.3 0.00 0.00 0.00 43 1010.5
20260506012041 9 296 1.6 16.1 0.00 0.00 0.00 42 1010.5
20260506011545 10 278 3.2 22.5 0.00 0.00 0.00 42 1010.4
20260506011044 10 251 4.8 22.5 0.00 0.00 0.00 41 1010.4
20260506010543 10 360 6.4 22.5 0.00 0.00 0.00 41 1010.4
20260506010107 10 0 3.2 12.9 0.00 0.00 0.00 41 1010.4
20260506005542 10 314 3.2 14.5 0.00 0.00 0.00 41 1010.3
20260506005041 10 275 3.2 14.5 0.00 0.00 0.00 40 1010.3
20260506004552 10 301 3.2 16.1 0.00 0.00 0.00 40 1010.2
20260506004041 10 295 6.4 16.1 0.00 0.00 0.00 40 1010.1
20260506003542 10 315 6.4 12.9 0.00 0.00 0.00 39 1010.1
20260506003050 10 285 4.8 22.5 0.00 0.00 0.00 39 1010.1
20260506002541 10 328 6.4 22.5 0.00 0.00 0.00 39 1010.0
20260506002043 10 319 3.2 16.1 0.00 0.00 0.00 40 1010.0
20260506001548 10 302 4.8 17.7 0.00 0.00 0.00 38 1010.0
20260506001042 10 302 6.4 17.7 0.00 0.00 0.00 38 1009.9
20260506000544 10 242 4.8 17.7 0.00 0.00 0.00 37 1009.9
20260506000057 10 323 4.8 16.1 0.00 0.00 0.00 38 1010.0
20260505235542 10 322 4.8 14.5 0.00 0.00 0.00 38 1009.9
20260505235045 10 317 1.6 12.9 0.00 0.00 0.00 38 1010.0
20260505234604 10 296 6.4 12.9 0.00 0.00 0.00 38 1010.0
20260505234042 10 294 4.8 19.3 0.00 0.00 0.00 38 1009.9
20260505233541 10 300 6.4 19.3 0.00 0.00 0.00 37 1009.9
20260505233053 10 232 9.7 19.3 0.00 0.00 0.00 36 1009.8
20260505232541 10 236 8.0 20.9 0.00 0.00 0.00 38 1009.9
20260505232043 10 244 9.7 20.9 0.00 0.00 0.00 36 1009.9
20260505231550 10 313 4.8 19.3 0.00 0.00 0.00 37 1009.9
20260505231042 11 318 6.4 19.3 0.00 0.00 0.00 36 1009.9
20260505230542 11 323 9.7 24.1 0.00 0.00 0.00 36 1010.0
20260505230046 11 258 4.8 24.1 0.00 0.00 0.00 37 1010.0
20260505225542 11 344 9.7 24.1 0.00 0.00 0.00 36 1010.0
20260505225041 11 287 6.4 16.1 0.00 0.00 0.00 36 1010.0
20260505224549 11 261 8.0 16.1 0.00 0.00 0.00 35 1010.1
20260505224045 10 228 3.2 17.7 0.00 0.00 0.00 36 1010.0
20260505223542 10 348 8.0 17.7 0.00 0.00 0.00 34 1010.1
20260505223051 11 312 4.8 14.5 0.00 0.00 0.00 35 1010.0
20260505222545 11 279 4.8 14.5 0.00 0.00 0.00 35 1009.9
20260505222042 11 341 3.2 16.1 0.00 0.00 0.00 35 1009.9
20260505221548 11 0 3.2 17.7 0.00 0.00 0.00 34 1009.9
20260505221043 11 302 6.4 17.7 0.00 0.00 0.00 34 1009.9
20260505220544 11 240 6.4 17.7 0.00 0.00 0.00 35 1009.8
20260505220050 11 302 3.2 17.7 0.00 0.00 0.00 36 1009.9
20260505215541 11 290 6.4 17.7 0.00 0.00 0.00 35 1009.8
20260505215044 11 329 6.4 22.5 0.00 0.00 0.00 35 1010.0
20260505214604 11 5 6.4 22.5 0.00 0.00 0.00 36 1010.0
20260505214041 11 317 9.7 22.5 0.00 0.00 0.00 34 1010.0
20260505213542 11 294 6.4 20.9 0.00 0.00 0.00 36 1009.9
20260505213056 11 304 8.0 20.9 0.00 0.00 0.00 35 1010.0
20260505212542 11 263 9.7 22.5 0.00 0.00 0.00 35 1010.0
20260505212042 11 238 9.7 24.1 0.00 0.00 0.00 34 1010.0
20260505211553 11 305 9.7 24.1 0.00 0.00 0.00 35 1010.0
20260505211042 11 257 9.7 22.5 0.00 0.00 0.00 35 1009.9
20260505210541 11 5 3.2 29.0 0.00 0.00 0.00 36 1010.0
20260505210057 11 355 9.7 29.0 0.00 0.00 0.00 35 1010.0
20260505205542 11 287 9.7 29.0 0.00 0.00 0.00 35 1010.0
20260505205045 11 285 8.0 20.9 0.00 0.00 0.00 38 1009.9
20260505204557 11 302 9.7 20.9 0.00 0.00 0.00 35 1010.0
20260505204041 11 269 8.0 17.7 0.00 0.00 0.00 35 1010.0
20260505203542 11 325 9.7 20.9 0.00 0.00 0.00 34 1010.0
20260505203053 11 232 4.8 20.9 0.00 0.00 0.00 35 1010.1
20260505202541 11 304 12.9 29.0 0.00 0.00 0.00 33 1010.1
20260505202041 11 15 11.3 30.6 0.00 0.00 0.00 35 1010.1
20260505201554 11 296 12.9 32.2 0.00 0.00 0.00 34 1010.1
20260505201042 11 300 11.3 32.2 0.00 0.00 0.00 33 1010.1
20260505200540 11 213 11.3 32.2 0.00 0.00 0.00 35 1010.3
20260505195541 11 311 9.7 25.7 0.00 0.00 0.00 34 1010.1
20260505195041 11 234 9.7 25.7 0.00 0.00 0.00 34 1010.1
20260505194554 11 237 9.7 25.7 0.00 0.00 0.00 36 1010.1
20260505194042 11 315 9.7 25.7 0.00 0.00 0.00 35 1010.2
20260505193543 11 346 9.7 27.4 0.00 0.00 0.00 35 1010.2
20260505193052 11 355 9.7 27.4 0.00 0.00 0.00 34 1010.2
20260505192538 11 311 14.5 27.4 0.00 0.00 0.00 33 1010.2
20260505192041 11 202 9.7 27.4 0.00 0.00 0.00 34 1010.3
20260505191550 11 304 9.7 27.4 0.00 0.00 0.00 36 1010.2
20260505191040 11 261 8.0 27.4 0.00 0.00 0.00 35 1010.2
20260505190542 11 261 11.3 27.4 0.00 0.00 0.00 33 1010.2
20260505190048 11 355 9.7 27.4 0.00 0.00 0.00 34 1010.3
20260505185541 11 225 9.7 27.4 0.00 0.00 0.00 35 1010.4
20260505185042 11 294 6.4 20.9 0.00 0.00 0.00 35 1010.4
20260505184552 11 333 8.0 22.5 0.00 0.00 0.00 37 1010.3
20260505184042 11 281 8.0 22.5 0.00 0.00 0.00 36 1010.3
20260505183546 10 277 6.4 22.5 0.00 0.00 0.00 37 1010.2
20260505183057 10 255 9.7 24.1 0.00 0.00 0.00 35 1010.2
20260505182541 10 244 9.7 27.4 0.00 0.00 0.00 35 1010.1
20260505182041 10 274 11.3 27.4 0.00 0.00 0.00 36 1010.1
20260505181550 10 355 6.4 25.7 0.00 0.00 0.00 36 1010.0
20260505181045 10 337 8.0 22.5 0.00 0.00 0.00 36 1010.0
20260505180546 10 288 8.0 25.7 0.00 0.00 0.00 37 1010.0
20260505180104 10 240 14.5 25.7 0.00 0.00 0.00 35 1010.0
20260505175542 10 315 11.3 25.7 0.00 0.00 0.00 35 1010.0
20260505175043 11 350 11.3 25.7 0.00 0.00 0.00 35 1010.0
20260505174601 10 288 11.3 25.7 0.00 0.00 0.00 36 1010.1
20260505174042 10 352 9.7 25.7 0.00 0.00 0.00 35 1010.1
20260505173541 10 273 9.7 25.7 0.00 0.00 0.00 36 1010.1
20260505173052 10 258 11.3 24.1 0.00 0.00 0.00 37 1010.2
20260505172541 10 275 11.3 25.7 0.00 0.00 0.00 36 1010.2
20260505172042 10 262 9.7 25.7 0.00 0.00 0.00 35 1010.1
20260505171553 10 348 11.3 25.7 0.00 0.00 0.00 35 1010.2
20260505171043 10 344 9.7 22.5 0.00 0.00 0.00 37 1010.3
20260505170542 10 348 6.4 22.5 0.00 0.00 0.00 36 1010.3
20260505170049 10 296 8.0 20.9 0.00 0.00 0.00 35 1010.3
20260505165541 10 310 9.7 30.6 0.00 0.00 0.00 35 1010.2
20260505165041 10 295 11.3 30.6 0.00 0.00 0.00 35 1010.4
20260505164551 10 282 12.9 24.1 0.00 0.00 0.00 36 1010.4
20260505164043 10 240 12.9 25.7 0.00 0.00 0.00 35 1010.3
20260505163542 10 326 11.3 25.7 0.00 0.00 0.00 35 1010.4
20260505163054 10 247 11.3 35.4 0.00 0.00 0.00 36 1010.4
20260505162539 9 236 12.9 35.4 0.00 0.00 0.00 36 1010.3
20260505162041 9 265 8.0 22.5 0.00 0.00 0.00 37 1010.2
20260505161603 9 187 11.3 22.5 0.00 0.00 0.00 36 1010.3
20260505161042 9 282 8.0 22.5 0.00 0.00 0.00 37 1010.3
20260505160541 8 308 9.7 25.7 0.00 0.00 0.00 38 1010.2
20260505153053 8 316 12.9 27.4 0.00 0.00 0.00 35 1010.1
20260505152542 8 259 9.7 24.1 0.00 0.00 0.00 36 1010.0
20260505152044 8 323 11.3 24.1 0.00 0.00 0.00 37 1010.1
20260505151553 8 352 11.3 24.1 0.00 0.00 0.00 37 1010.0
20260505151042 8 271 11.3 22.5 0.00 0.00 0.00 37 1010.0
20260505150542 8 267 6.4 17.7 0.00 0.00 0.00 39 1010.1
20260505140542 7 21 8.0 20.9 0.00 0.00 0.00 48 1010.0
20260505124550 6 281 9.7 19.3 0.00 0.00 0.00 56 1009.6
20260505124045 6 295 4.8 20.9 0.00 0.00 0.00 57 1009.4
20260505123542 6 224 3.2 20.9 0.00 0.00 0.00 58 1009.4
20260505123100 6 267 6.4 17.7 0.00 0.00 0.00 59 1009.3
20260505122542 5 323 4.8 17.7 0.00 0.00 0.00 61 1009.2
20260505122042 5 274 6.4 17.7 0.00 0.00 0.00 62 1009.1
20260505121557 5 0 3.2 9.7 0.00 0.00 0.00 63 1009.0
20260505121043 5 254 3.2 9.7 0.00 0.00 0.00 64 1008.9
20260505120542 4 271 3.2 11.3 0.00 0.00 0.00 66 1008.8
20260505120052 3 273 1.6 11.3 0.00 0.00 0.00 68 1008.7
20260505115541 3 0 0.0 3.2 0.00 0.00 0.00 69 1008.5
20260505115042 3 0 0.0 3.2 0.00 0.00 0.00 70 1008.3
20260505114549 3 0 0.0 3.2 0.00 0.00 0.00 71 1008.1
20260505114046 3 346 0.0 4.8 0.00 0.00 0.00 71 1008.0
20260505113545 3 0 0.0 4.8 0.00 0.00 0.00 71 1007.9
20260505113056 3 0 0.0 3.2 0.00 0.00 0.00 70 1007.9
20260505112543 3 23 0.0 3.2 0.00 0.00 0.00 69 1007.9
20260505112042 3 22 0.0 4.8 0.00 0.00 0.00 68 1007.8
20260505111550 3 0 0.0 4.8 0.00 0.00 0.00 67 1007.8
20260505111043 3 0 1.6 4.8 0.00 0.00 0.00 66 1007.8
20260505110542 3 0 0.0 0.0 0.00 0.00 0.00 65 1007.7
20260505102042 6 0 0.0 0.0 0.00 0.00 0.00 57 1007.4
20260505101549 6 0 0.0 4.8 0.00 0.00 0.00 57 1007.3
20260505101042 6 0 0.0 4.8 0.00 0.00 0.00 56 1007.3
20260505100542 6 0 0.0 11.3 0.00 0.00 0.00 56 1007.2
20260505100052 6 287 1.6 11.3 0.00 0.00 0.00 56 1007.1
20260505095542 6 275 3.2 11.3 0.00 0.00 0.00 55 1007.1
20260505095041 6 277 3.2 11.3 0.00 0.00 0.00 55 1007.0
20260505094548 6 321 3.2 11.3 0.00 0.00 0.00 55 1006.9
20260505094042 6 0 3.2 16.1 0.00 0.00 0.00 55 1006.8
20260505093542 6 248 3.2 16.1 0.00 0.00 0.00 54 1006.8
20260505093047 6 283 3.2 20.9 0.00 0.00 0.00 53 1006.8
20260505092542 6 306 3.2 20.9 0.00 0.00 0.00 53 1006.7
20260505092043 6 277 4.8 12.9 0.00 0.00 0.00 53 1006.7
20260505091605 7 327 3.2 12.9 0.00 0.00 0.00 53 1006.6
20260505091040 7 309 3.2 16.1 0.00 0.00 0.00 53 1006.7
20260505090541 7 244 6.4 16.1 0.00 0.00 0.00 53 1006.6
20260505090049 7 257 4.8 14.5 0.00 0.00 0.00 53 1006.5